sat.trackr.live / text

‹ back to catalog

STARLINK-11286 [DTC]

NORAD 61050 · 2024-164A

PAYLOAD ACTIVE UNKNOWN

§ Identity

Operator
Country
US
Launch date
2024-09-13
Launch site
AFWTR
Launch vehicle
Mass (kg)
RCS (m²)

Purposes: comms

External: N2YO · Heavens-Above · Gunter

§ Orbital elements

Epoch: 2026-09-21T21:16:49.555488Z

Period
91.74 min
Inclination
53.1609°
Eccentricity
0.0001291
Mean motion
15.69704996 rev/d
Perigee alt
358.9 km
Apogee alt
360.6 km
Semi-major
6,737.9 km
B*
9.7739e-6
RAAN
64.1135°
Arg perigee
120.6686°
Mean anomaly
239.4459°
Rev number
11,623

§ Raw data

STARLINK-11286 [DTC]1 61050U 24164A   26264.88668467  .00000595  00000+0  97739-5 0  99902 61050  53.1609  64.1135 0001291 120.6686 239.4459 15.69704996116235

JSON: /api/v1/satellites/61050 · /tle

For live sub-satellite position, see the globe view (requires WebGL).

§ Visibility from observer

Set your observer location to see the next 7 days of passes ≥ 10°. The values pass through the URL so the page stays shareable.

No JS? Fill the form by hand. The geolocation button needs JavaScript.